Regional Weather Roundup
Issued by NWS

Home | Current Version | Previous Version | Text Only | Print | Product List | Glossary Off
Versions: 1 2 3 4 5 6 7 8 9 10 11 12 13 14 15 16 17 18 19 20 21 22 23 24 25 26 27 28 29 30 31 32 33 34 35 36 37 38 39 40 41 42 43 44 45 46 47 48 49 50

000
ASUS43 KMKX 210100
RWRWI

WISCONSIN REGIONAL WEATHER ROUNDUP
NATIONAL WEATHER SERVICE MILWAUKEE/SULLIVAN WI
800 PM CDT THU JUL 20 2017

NOTE: "FAIR" INDICATES FEW OR NO CLOUDS BELOW 12,000 FEET WITH NO
SIGNIFICANT WEATHER AND/OR OBSTRUCTIONS TO VISIBILITY.

WIZ001-002-006>008-014>016-023>028-210200-
NORTHWEST WISCONSIN

CITY           SKY/WX    TMP DP  RH WIND       PRES   REMARKS
SUPERIOR ARPT  NOT AVBL
ASHLAND        CLEAR     78  67  68 SW5       29.94S HX  80
HAYWARD        CLEAR     80  62  54 W3        29.98F HX  81
SIREN          CLEAR     81  65  58 CALM      29.98S HX  82
CUMBERLAND     CLEAR     79  64  61 SW5       30.00S HX  81
RICE LAKE      CLEAR     80  67  63 W3        30.01R HX  82
CHETEK         CLEAR     80  67  64 MISG      29.99S HX  83
LADYSMITH      CLEAR     80  65  60 W3        30.01S HX  81
EAU CLAIRE     NOT AVBL
MENOMONIE      CLEAR     81  68  64 CALM      29.99S HX  84
NEW RICHMOND   CLEAR     82  65  56 CALM      29.99S HX  83
OSCEOLA        CLEAR     81  67  61 CALM      30.01S HX  84
$$

WIZ003>005-009-010-017-018-210200-
NORTH CENTRAL WISCONSIN

CITY           SKY/WX    TMP DP  RH WIND       PRES   REMARKS
MANITOWISH WTR CLEAR     77  61  57 CALM      29.99F
ARBOR VITAE    CLEAR     77  58  52 CALM      29.99S
WOODRUFF       CLEAR     77  58  52 CALM      29.99S
RHINELANDER    CLEAR     76  62  62 CALM      30.00S
EAGLE RIVER    CLEAR     75  56  50 NW3       29.99S
LAND O LAKES   CLEAR     74  55  51 NW3       30.01S
PHILLIPS       CLEAR     78  65  63 CALM      29.99S HX  80
TOMAHAWK         N/A     77  62  58 CALM      30.00S
MEDFORD        CLEAR     78  65  63 W5        30.01R HX  80
MERRILL        CLEAR     79  65  62 W3        30.00R HX  81
$$

WIZ029-030-035-036-043>047-210200-
CENTRAL WISCONSIN

CITY           SKY/WX    TMP DP  RH WIND       PRES   REMARKS
WAUSAU         CLEAR     79  65  62 W7        29.97S HX  81
MOSINEE        PTCLDY    79  66  65 W6        30.00S HX  81
MARSHFIELD     CLEAR     77  65  66 NW7       29.99S
STEVENS POINT  CLOUDY    80  65  59 W6        29.99S HX  82
WAUPACA        CLOUDY    83  64  52 NW5       29.96S HX  85
WAUTOMA        CLOUDY    79  70  74 NW6       29.97R HX  82
WISC RAPIDS    CLOUDY    81  66  60 NW3       30.00R HX  83
CAMP DOUGLAS   NOT AVBL
$$

WIZ011>013-019>022-031-037>040-048>050-210200-
NORTHEAST WISCONSIN

CITY           SKY/WX    TMP DP  RH WIND       PRES   REMARKS
ANTIGO         CLEAR     78  63  59 W8        30.00R HX  80
SHAWANO        CLEAR     83  62  50 CALM      29.95R HX  84
OCONTO         CLEAR     80  69  70 CALM      29.92S HX  83
STURGEON BAY     N/A     77  70  79 S7        29.94R HAZE
GREEN BAY      CLEAR     81  72  74 W3        29.94S HX  85
MANITOWOC      NOT AVBL
APPLETON       MOCLDY    81  63  54 W7        29.95R HX  82
CLINTONVILLE   PTCLDY    82  61  47 W3        29.95S HX  83
OSHKOSH        CLOUDY    79  70  74 NW3       29.95S HX  82
$$

WIZ032>034-041-042-053>061-210200-
SOUTHWEST WISCONSIN

CITY           SKY/WX    TMP DP  RH WIND       PRES   REMARKS
LA CROSSE      CLOUDY    83  71  67 N6        29.96S HX  87
SPARTA         MOCLDY    78  72  80 N3        29.99S HX  81
VIROQUA        CLOUDY    79  73  83 CALM      30.00S HX  82
BOSCOBEL       CLOUDY    79  74  84 CALM      29.97R HX  82
PRAIRIE DU CHI CLOUDY    82  70  66 CALM      29.96S HX  86
PLATTEVILLE    PTCLDY    81  77  88 CALM      29.99S HX  88
$$

WIZ056-057-062-063-064-067-068-210200-
SOUTH CENTRAL WISCONSIN

CITY           SKY/WX    TMP DP  RH WIND       PRES   REMARKS
REEDSBURG      CLOUDY    79  71  76 N5        29.98R HX  82
BARABOO/DELLS  CLOUDY    79  68  69 CALM      29.98R HX  81
LONE ROCK      CLOUDY    79  72  79 CALM      29.97R HX  82
MINERAL POINT  CLEAR     81  75  83 N3        29.99S HX  86
MADISON        CLOUDY    80  73  79 NW3       29.97R HX  84
MIDDLETON      CLOUDY    81  74  79 N3        29.98S HX  85
WATERTOWN      CLOUDY    82  72  72 CALM      29.96S HX  86
MONROE         CLEAR     81  70  69 CALM      29.98S HX  84
JANESVILLE     PTCLDY    82  73  74 CALM      29.96S HX  88
$$

WIZ051-052-058>065-066-070>072-210200-
SOUTHEAST WISCONSIN

CITY           SKY/WX    TMP DP  RH WIND       PRES   REMARKS
MILWAUKEE      MOCLDY    78  71  79 S7        29.96S HX  80
WAUKESHA       PTCLDY    79  70  73 CALM      29.98R HX  81
MILWAUKEE/TIMM PTCLDY    81  66  61 SE5       29.97R HX  83
RACINE         CLEAR     75  69  81 S7        29.98S
KENOSHA        CLEAR     76  69  79 S6        29.98R
FOND DU LAC    CLOUDY    78  68  71 SW5       29.96S HX  80
SHEBOYGAN      CLOUDY    77  73  87 SW5       29.95R
WEST BEND      CLOUDY    79  70  73 N5        29.97R HX  81
JUNEAU         CLOUDY    78  69  72 CALM      29.98R HX  81
$$

LSZ147-162-210200-
LAKE SUPERIOR

STATION/POSITION TIME  TEMP    WIND        PRES    WAVE
                       AIR SEA DIR/SP/G            HT/PER
                 (UTC) (F)     (DEG/KT/KT) (MB)    (FT/S)
W MID LAKE BUOY  2350   55 48  230/  4/  4 1013.3F   1
DEVILS ISLAND    0000   75     230/ 11/ 13 1012.8F
SAXON HARBOR     0040   78     210/  1/  2 1013.2F
$$

LMZ867-665-643>646-210200-
LAKE MICHIGAN

STATION/POSITION TIME  TEMP    WIND        PRES    WAVE
                       AIR SEA DIR/SP/G            HT/PER
                 (UTC) (F)     (DEG/KT/KT) (MB)    (FT/S)
CHAMBERS ISLAND  0030   79     180/  3/  6 1012.2S
S GREEN BAY BUOY 0000   78 74  200/  6/  8 1013.3
N MID LAKE BUOY  2350   69 66  170/ 10/ 10 1013.3R   1/ 5
NORTHPORT PIER   0040   79     200/  1/  3 1012.2S
KEWAUNEE LAKESHO 0030   71     170/  8/  9 1013.2S
SHEBOYGAN LAKESH 0000   70     180/ 17/ 19 1013.4R
PORT WASHINGTON  0030   72     180/  4/  6 1015.2R
ATWATER BUOY     2339   71 70  170/ 10/ 12 1014.5R
MILWAUKEE LAKESH 0030   72     150/ 10/ 11   N/A
S MID LAKE BUOY  2350   73 72  120/  4/  4 1014.3R   1/ 4
KENOSHA   LAKESH 0000   74     180/  9/ 11 1014.2
$$

TC  - TEMPERATURE IN CELSIUS
VSB - VISIBILITY IN STATUTE MILES
WCI - WIND CHILL INDEX
HX  - HEAT INDEX





USA.gov is the U.S. government's official web portal to all federal, state and local government web resources and services.